AAL4424 KDCA-KLGA

Flight info

Callsign AAL4424
Flight time 0h 43m
Altitude 21000
Route DOCTR5 AGARD SPEAK PROUD2
Aircraft A21N/M-SDE2E3FGHIRWXY/LB1

Departure

Time 2026-05-05 20:41
Airport Ronald Reagan Washington National Airport (KDCA)

Arrival

Time 2026-05-05 21:24
Airport LaGuardia Airport (KLGA)
Time Latitude Longitude Altitude Speed Heading
2026-05-05 19:55 38.85599 -77.04138 30 ft 0 kts 293°
2026-05-05 20:29 38.85593 -77.04123 30 ft 4 kts 300°
2026-05-05 20:29 38.85577 -77.04097 30 ft 4 kts 324°
2026-05-05 20:29 38.85553 -77.04082 29 ft 3 kts 345°
2026-05-05 20:29 38.85546 -77.04080 29 ft 0 kts 345°
2026-05-05 20:35 38.85552 -77.04078 30 ft 2 kts 14°
2026-05-05 20:35 38.85578 -77.04066 30 ft 6 kts 22°
2026-05-05 20:36 38.85630 -77.04044 30 ft 10 kts
2026-05-05 20:36 38.85682 -77.04046 30 ft 0 kts 356°
2026-05-05 20:36 38.85684 -77.04046 30 ft 0 kts 356°
2026-05-05 20:36 38.85686 -77.04046 30 ft 1 kts 356°
2026-05-05 20:37 38.85692 -77.04047 30 ft 0 kts 356°
2026-05-05 20:37 38.85693 -77.04047 30 ft 0 kts 356°
2026-05-05 20:37 38.85695 -77.04047 30 ft 1 kts 356°
2026-05-05 20:38 38.85737 -77.04051 31 ft 8 kts 355°
2026-05-05 20:38 38.85806 -77.04058 31 ft 11 kts 354°
2026-05-05 20:38 38.85891 -77.04065 30 ft 13 kts 16°
2026-05-05 20:38 38.85949 -77.03986 30 ft 11 kts 40°
2026-05-05 20:39 38.85993 -77.03960 30 ft 0 kts 17°
2026-05-05 20:39 38.85994 -77.03960 30 ft 1 kts 17°
2026-05-05 20:39 38.86016 -77.03951 30 ft 6 kts 17°
2026-05-05 20:39 38.86067 -77.03929 29 ft 10 kts 39°
2026-05-05 20:40 38.86042 -77.03865 29 ft 12 kts 174°
2026-05-05 20:40 38.86024 -77.03863 29 ft 6 kts 176°
2026-05-05 20:40 38.85679 -77.03829 30 ft 89 kts 176°
2026-05-05 20:40 38.84864 -77.03750 192 ft 130 kts 177°
2026-05-05 20:41 38.83965 -77.03655 832 ft 130 kts 176°
2026-05-05 20:41 38.83034 -77.03476 1405 ft 145 kts 176°
2026-05-05 20:41 38.81953 -77.03247 2008 ft 168 kts 177°
2026-05-05 20:41 38.80727 -77.02992 2724 ft 189 kts 175°
2026-05-05 20:42 38.79354 -77.02708 3447 ft 211 kts 175°
2026-05-05 20:42 38.77852 -77.02381 4275 ft 226 kts 172°
2026-05-05 20:42 38.76379 -77.01552 5310 ft 241 kts 149°
2026-05-05 20:42 38.75299 -76.99804 6235 ft 268 kts 120°
2026-05-05 20:43 38.74951 -76.97338 6943 ft 296 kts 95°
2026-05-05 20:43 38.75027 -76.94658 7859 ft 306 kts 87°
2026-05-05 20:43 38.75650 -76.92012 8781 ft 318 kts 60°
2026-05-05 20:43 38.77106 -76.89883 9741 ft 320 kts 32°
2026-05-05 20:44 38.79016 -76.88389 10491 ft 331 kts 25°
2026-05-05 20:44 38.81107 -76.86904 10931 ft 356 kts 25°
2026-05-05 20:44 38.83334 -76.85271 11295 ft 381 kts 26°
2026-05-05 20:44 38.85552 -76.83213 11650 ft 408 kts 40°
2026-05-05 20:45 38.88754 -76.76825 12543 ft 441 kts 64°
2026-05-05 20:45 38.90050 -76.73236 13262 ft 444 kts 64°
2026-05-05 20:45 38.91371 -76.69637 13961 ft 447 kts 63°
2026-05-05 20:46 38.92717 -76.66016 14579 ft 450 kts 63°
2026-05-05 20:46 38.94072 -76.62376 15187 ft 453 kts 64°
2026-05-05 20:46 38.95335 -76.58649 15821 ft 456 kts 66°
2026-05-05 20:46 38.96568 -76.54880 16404 ft 460 kts 66°
2026-05-05 20:47 38.97806 -76.51086 16965 ft 463 kts 66°
2026-05-05 20:47 38.99056 -76.47254 17516 ft 465 kts 67°
2026-05-05 20:47 39.00271 -76.43445 18078 ft 468 kts 69°
2026-05-05 20:47 39.01147 -76.39418 18578 ft 471 kts 79°
2026-05-05 20:48 39.01617 -76.35227 19024 ft 475 kts 83°
2026-05-05 20:48 39.02010 -76.30986 19513 ft 478 kts 84°
2026-05-05 20:48 39.02404 -76.26736 20007 ft 481 kts 83°
2026-05-05 20:48 39.02818 -76.22447 20524 ft 484 kts 83°
2026-05-05 20:49 39.03238 -76.18135 20856 ft 487 kts 83°
2026-05-05 20:49 39.03659 -76.13783 20930 ft 492 kts 83°
2026-05-05 20:49 39.04079 -76.09440 20945 ft 489 kts 83°
2026-05-05 20:49 39.04406 -76.05092 20927 ft 488 kts 87°
2026-05-05 20:50 39.04608 -76.00730 20926 ft 488 kts 87°
2026-05-05 20:50 39.04805 -75.96369 20920 ft 489 kts 87°
2026-05-05 20:50 39.04998 -75.92018 20922 ft 488 kts 87°
2026-05-05 20:50 39.05193 -75.87656 20912 ft 487 kts 87°
2026-05-05 20:51 39.05394 -75.83297 20913 ft 488 kts 86°
2026-05-05 20:51 39.05878 -75.79028 20907 ft 488 kts 77°
2026-05-05 20:51 39.06961 -75.74902 20908 ft 487 kts 65°
2026-05-05 20:51 39.08636 -75.71125 20905 ft 485 kts 53°
2026-05-05 20:52 39.10813 -75.67832 20911 ft 482 kts 44°
2026-05-05 20:52 39.13158 -75.64751 20906 ft 482 kts 43°
2026-05-05 20:52 39.15522 -75.61682 20911 ft 483 kts 43°
2026-05-05 20:52 39.17874 -75.58593 20904 ft 483 kts 43°
2026-05-05 20:53 39.20216 -75.55495 20899 ft 483 kts 44°
2026-05-05 20:53 39.22580 -75.52422 20899 ft 482 kts 40°
2026-05-05 20:53 39.25205 -75.49758 20901 ft 479 kts 32°
2026-05-05 20:53 39.27952 -75.47330 20906 ft 479 kts 31°
2026-05-05 20:54 39.30711 -75.44914 20902 ft 479 kts 31°
2026-05-05 20:54 39.33465 -75.42484 20914 ft 479 kts 31°
2026-05-05 20:54 39.36212 -75.40045 20914 ft 479 kts 32°
2026-05-05 20:54 39.38959 -75.37596 20907 ft 480 kts 32°
2026-05-05 20:55 39.41701 -75.35135 20913 ft 480 kts 32°
2026-05-05 20:55 39.44440 -75.32683 20909 ft 479 kts 32°
2026-05-05 20:55 39.47183 -75.30227 20902 ft 479 kts 32°
2026-05-05 20:55 39.49925 -75.27779 20900 ft 480 kts 32°
2026-05-05 20:56 39.52643 -75.25260 20902 ft 480 kts 33°
2026-05-05 20:56 39.55285 -75.22764 20733 ft 470 kts 33°
2026-05-05 20:56 39.57975 -75.20233 20296 ft 467 kts 33°
2026-05-05 20:56 39.60549 -75.17817 19772 ft 459 kts 33°
2026-05-05 20:57 39.63112 -75.15411 19254 ft 452 kts 33°
2026-05-05 20:57 39.65643 -75.13032 18766 ft 447 kts 33°
2026-05-05 20:57 39.68177 -75.10707 18278 ft 444 kts 31°
2026-05-05 20:57 39.70742 -75.08495 17721 ft 441 kts 30°
2026-05-05 20:58 39.73291 -75.06303 17179 ft 438 kts 30°
2026-05-05 20:58 39.75815 -75.04129 16651 ft 432 kts 31°
2026-05-05 20:58 39.78315 -75.01967 16163 ft 430 kts 30°
2026-05-05 20:58 39.80810 -74.99831 15658 ft 428 kts 30°
2026-05-05 20:59 39.83292 -74.97708 15167 ft 426 kts 30°
2026-05-05 20:59 39.85754 -74.95558 14705 ft 426 kts 31°
2026-05-05 20:59 39.88174 -74.93356 14275 ft 424 kts 31°
2026-05-05 20:59 39.90589 -74.91157 13859 ft 423 kts 31°
2026-05-05 21:00 39.92859 -74.88727 13413 ft 424 kts 41°
2026-05-05 21:00 39.94874 -74.85932 12909 ft 422 kts 44°
2026-05-05 21:00 39.96843 -74.83101 12436 ft 421 kts 44°
2026-05-05 21:00 39.98800 -74.80285 11995 ft 414 kts 45°
2026-05-05 21:01 40.00702 -74.77541 11684 ft 400 kts 44°
2026-05-05 21:01 40.02546 -74.74902 11452 ft 386 kts 44°
2026-05-05 21:01 40.04320 -74.72363 11226 ft 373 kts 44°
2026-05-05 21:01 40.06033 -74.69898 11040 ft 360 kts 44°
2026-05-05 21:02 40.07686 -74.67519 10877 ft 348 kts 44°
2026-05-05 21:02 40.09285 -74.65224 10695 ft 337 kts 44°
2026-05-05 21:02 40.10855 -74.62968 10314 ft 335 kts 44°
2026-05-05 21:02 40.12417 -74.60720 10050 ft 332 kts 44°
2026-05-05 21:03 40.13971 -74.58490 9996 ft 331 kts 44°
2026-05-05 21:03 40.15523 -74.56266 9997 ft 331 kts 44°
2026-05-05 21:03 40.17047 -74.54061 10005 ft 331 kts 44°
2026-05-05 21:03 40.18591 -74.51821 10011 ft 331 kts 44°
2026-05-05 21:04 40.20144 -74.49602 10022 ft 330 kts 42°
2026-05-05 21:04 40.21773 -74.47495 10023 ft 329 kts 40°
2026-05-05 21:04 40.23424 -74.45416 10037 ft 329 kts 40°
2026-05-05 21:04 40.25072 -74.43340 10028 ft 329 kts 40°
2026-05-05 21:05 40.26724 -74.41255 10031 ft 329 kts 40°
2026-05-05 21:05 40.28372 -74.39176 10053 ft 330 kts 40°
2026-05-05 21:05 40.30005 -74.37108 9750 ft 326 kts 40°
2026-05-05 21:05 40.31643 -74.35033 9234 ft 329 kts 40°
2026-05-05 21:06 40.33287 -74.32946 8812 ft 327 kts 41°
2026-05-05 21:06 40.34918 -74.30879 8407 ft 326 kts 41°
2026-05-05 21:06 40.36543 -74.28818 8078 ft 322 kts 41°
2026-05-05 21:06 40.38138 -74.26792 8008 ft 318 kts 41°
2026-05-05 21:07 40.39732 -74.24767 7989 ft 319 kts 41°
2026-05-05 21:07 40.41327 -74.22743 7996 ft 319 kts 41°
2026-05-05 21:07 40.42903 -74.20742 7747 ft 314 kts 41°
2026-05-05 21:07 40.44475 -74.18743 7347 ft 313 kts 42°
2026-05-05 21:08 40.46018 -74.16774 7158 ft 305 kts 43°
2026-05-05 21:08 40.47517 -74.14866 7011 ft 295 kts 42°
2026-05-05 21:08 40.48965 -74.13019 6886 ft 285 kts 42°
2026-05-05 21:08 40.50363 -74.11239 6760 ft 274 kts 43°
2026-05-05 21:09 40.51727 -74.09540 6539 ft 268 kts 38°
2026-05-05 21:09 40.53216 -74.08155 6225 ft 265 kts 28°
2026-05-05 21:09 40.54849 -74.07057 5898 ft 262 kts 19°
2026-05-05 21:09 40.56531 -74.06151 5571 ft 260 kts 18°
2026-05-05 21:10 40.58211 -74.05277 5264 ft 259 kts 17°
2026-05-05 21:10 40.59906 -74.04562 5027 ft 254 kts
2026-05-05 21:10 40.61629 -74.04032 4984 ft 254 kts
2026-05-05 21:10 40.63359 -74.03527 4998 ft 255 kts
2026-05-05 21:11 40.65083 -74.03027 5006 ft 254 kts
2026-05-05 21:11 40.66811 -74.02536 5020 ft 253 kts
2026-05-05 21:11 40.68536 -74.02050 5020 ft 254 kts
2026-05-05 21:11 40.70257 -74.01565 4909 ft 250 kts
2026-05-05 21:12 40.71962 -74.01090 4597 ft 252 kts
2026-05-05 21:12 40.73683 -74.00612 4270 ft 253 kts
2026-05-05 21:12 40.75401 -74.00130 4018 ft 250 kts
2026-05-05 21:12 40.77078 -73.99501 3986 ft 253 kts 15°
2026-05-05 21:13 40.78688 -73.98635 3951 ft 255 kts 21°
2026-05-05 21:13 40.80247 -73.97625 3955 ft 241 kts 22°
2026-05-05 21:13 40.81708 -73.96655 3956 ft 232 kts 22°
2026-05-05 21:13 40.83161 -73.95698 3963 ft 233 kts 22°
2026-05-05 21:14 40.84618 -73.94731 3970 ft 235 kts 22°
2026-05-05 21:14 40.86083 -73.93766 3999 ft 234 kts 22°
2026-05-05 21:14 40.87544 -73.92815 4045 ft 233 kts 22°
2026-05-05 21:14 40.88993 -73.91868 4024 ft 233 kts 22°
2026-05-05 21:15 40.90457 -73.90902 3997 ft 235 kts 22°
2026-05-05 21:15 40.91920 -73.89946 3986 ft 233 kts 22°
2026-05-05 21:15 40.92901 -73.89306 3981 ft 233 kts 22°
2026-05-05 21:15 40.94353 -73.88351 3981 ft 233 kts 22°
2026-05-05 21:16 40.95778 -73.87411 3996 ft 232 kts 22°
2026-05-05 21:16 40.97190 -73.86387 3983 ft 231 kts 27°
2026-05-05 21:16 40.98557 -73.85296 3652 ft 231 kts 27°
2026-05-05 21:16 40.99902 -73.84230 3296 ft 232 kts 27°
2026-05-05 21:17 41.01269 -73.83104 3026 ft 232 kts 38°
2026-05-05 21:17 41.02194 -73.81393 2970 ft 229 kts 71°
2026-05-05 21:17 41.02355 -73.79388 2827 ft 213 kts 103°
2026-05-05 21:17 41.01873 -73.77579 2443 ft 203 kts 130°
2026-05-05 21:18 41.00886 -73.76382 2108 ft 187 kts 157°
2026-05-05 21:18 40.99692 -73.75791 1911 ft 184 kts 169°
2026-05-05 21:18 40.98459 -73.75480 1881 ft 178 kts 177°
2026-05-05 21:18 40.97226 -73.75235 1887 ft 177 kts 177°
2026-05-05 21:19 40.96015 -73.74998 1894 ft 177 kts 177°
2026-05-05 21:19 40.94777 -73.74757 1904 ft 181 kts 177°
2026-05-05 21:19 40.93576 -73.74903 1904 ft 175 kts 201°
2026-05-05 21:19 40.92482 -73.75588 1913 ft 170 kts 210°
2026-05-05 21:20 40.91485 -73.76379 1910 ft 162 kts 212°
2026-05-05 21:20 40.90539 -73.77154 1906 ft 162 kts 213°
2026-05-05 21:20 40.89586 -73.77942 1901 ft 162 kts 213°
2026-05-05 21:20 40.88629 -73.78735 1900 ft 163 kts 213°
2026-05-05 21:21 40.87695 -73.79507 1895 ft 153 kts 213°
2026-05-05 21:21 40.86796 -73.80251 1835 ft 149 kts 213°
2026-05-05 21:21 40.85947 -73.80953 1705 ft 139 kts 213°
2026-05-05 21:21 40.85163 -73.81601 1530 ft 126 kts 212°
2026-05-05 21:22 40.84423 -73.82213 1374 ft 124 kts 214°
2026-05-05 21:22 40.83682 -73.82826 1181 ft 122 kts 212°
2026-05-05 21:22 40.82957 -73.83425 1003 ft 126 kts 212°
2026-05-05 21:22 40.82214 -73.84038 843 ft 124 kts 212°
2026-05-05 21:23 40.81482 -73.84643 693 ft 127 kts 209°
2026-05-05 21:23 40.80741 -73.85257 538 ft 123 kts 211°
2026-05-05 21:23 40.80034 -73.85840 372 ft 118 kts 209°
2026-05-05 21:23 40.79321 -73.86430 228 ft 122 kts 210°
2026-05-05 21:24 40.78599 -73.87036 55 ft 121 kts 209°
2026-05-05 21:24 40.77947 -73.87558 22 ft 83 kts 212°
2026-05-05 21:24 40.77672 -73.87791 30 ft 32 kts 211°
2026-05-05 21:24 40.77559 -73.87814 28 ft 16 kts 134°
2026-05-05 21:25 40.77581 -73.87713 26 ft 6 kts 32°
2026-05-05 21:25 40.77589 -73.87706 27 ft 3 kts 37°
2026-05-05 21:25 40.77606 -73.87656 26 ft 8 kts 90°
2026-05-05 21:25 40.77639 -73.87583 27 ft 11 kts 34°
2026-05-05 21:26 40.77647 -73.87576 26 ft 2 kts 34°
2026-05-05 21:26 40.77665 -73.87560 26 ft 5 kts 33°
2026-05-05 21:26 40.77697 -73.87532 25 ft 7 kts 34°
2026-05-05 21:26 40.77736 -73.87486 25 ft 8 kts 56°
2026-05-05 21:27 40.77763 -73.87410 23 ft 10 kts 69°
2026-05-05 21:27 40.77774 -73.87310 20 ft 12 kts 97°
2026-05-05 21:27 40.77740 -73.87195 21 ft 15 kts 126°
2026-05-05 21:27 40.77688 -73.87090 21 ft 10 kts 122°
2026-05-05 21:28 40.77652 -73.87015 20 ft 0 kts 122°
2026-05-05 21:28 40.77648 -73.87007 19 ft 2 kts 122°
2026-05-05 21:28 40.77635 -73.86980 19 ft 5 kts 122°
2026-05-05 21:28 40.77592 -73.86957 22 ft 10 kts 192°
2026-05-05 21:29 40.77559 -73.86975 24 ft 3 kts 206°
2026-05-05 21:29 40.77529 -73.86975 25 ft 6 kts 167°
2026-05-05 21:29 40.77510 -73.86961 26 ft 1 kts 148°
2026-05-05 21:29 40.77502 -73.86955 25 ft 1 kts 147°
2026-05-05 21:30 40.77497 -73.86951 25 ft 0 kts 147°
2026-05-05 21:30 40.77496 -73.86950 25 ft 0 kts 146°
2026-05-05 21:30 40.77495 -73.86949 25 ft 0 kts 146°